Martinsburg, WV

2:58 AM EST on February 12, 2016 (GMT -0500)
Eastern W Va Regional-Shepherd

Weather History for KMRB - November, 2014

Change the Weather History Date:

Friday, November 28, 2014

  Actual Average Record
Temperature  
Mean Temperature 31 °F 40 °F  
Max Temperature 38 °F 49 °F 75 °F (1998)
Min Temperature 24 °F 31 °F 12 °F (1938)
Degree Days  
Heating Degree Days 34 25  
Month to date heating degree days 628 572  
Since 1 July heating degree days 916 1018  
Cooling Degree Days 0 0  
Month to date cooling degree days 0 0  
Year to date cooling degree days 958 895  
Moisture  
Dew Point 18 °F    
Average Humidity 55    
Maximum Humidity 74    
Minimum Humidity 35    
Precipitation  
Precipitation T in 0.11 in 2.70 in (1984)
Month to date precipitation 2.18 2.90  
Year to date precipitation 32.38 35.76  
Sea Level Pressure  
Sea Level Pressure 30.28 in    
Wind  
Wind Speed 8 mph (WNW)    
Max Wind Speed 23 mph    
Max Gust Speed 26 mph    
Visibility 9 miles    
Events Snow    
T = Trace of Precipitation, MM = Missing Value Source: NWS Daily Summary

Daily Weather History Graph

Daily Weather History Graph

Search for Another Location

Airport or City:

Trip Planner

Search our weather history database for the weather conditions in past years. The results will help you decide how hot, cold, wet, or windy it might be!

Date:

Astronomy

Nov. 28, 2014 Rise Set
Actual Time 7:09 AM EST 4:49 PM EST
Civil Twilight 6:40 AM EST 5:19 PM EST
Nautical Twilight 6:07 AM EST 5:52 PM EST
Astronomical Twilight 5:34 AM EST 6:24 PM EST
Moon 12:03 PM EST (11/28) 11:34 PM EST (11/28)
Length of Visible Light 10h 39m
Length of Day
9h 39m
Waxing Crescent, 42% of the Moon is Illuminated
Nov 28
Waxing Crescent
Nov 29
First Quarter
Dec 6
Full
Dec 14
Last Quarter
Dec 21
New

Hourly Weather History & Observations

Time (EST) Temp. Windchill Dew Point Humidity Pressure Visibility Wind Dir Wind Speed Gust Speed Precip Events Conditions
12:53 AM 34.0 °F 23.0 °F 19.0 °F 54% 30.20 in 10.0 mi West 18.4 mph 25.3 mph N/A   Clear
1:53 AM 34.0 °F 24.2 °F 19.0 °F 54% 30.21 in 10.0 mi WNW 15.0 mph 23.0 mph N/A   Partly Cloudy
2:53 AM 33.1 °F 26.1 °F 19.0 °F 56% 30.22 in 10.0 mi WNW 8.1 mph - N/A   Mostly Cloudy
3:53 AM 34.0 °F 31.0 °F 19.0 °F 54% 30.23 in 10.0 mi West 3.5 mph - N/A   Overcast
4:53 AM 34.0 °F 28.0 °F 19.0 °F 54% 30.24 in 10.0 mi West 6.9 mph - N/A   Overcast
5:53 AM 33.1 °F 25.5 °F 18.0 °F 54% 30.26 in 10.0 mi West 9.2 mph - N/A   Overcast
6:53 AM 33.1 °F 21.9 °F 17.1 °F 52% 30.27 in 10.0 mi WNW 18.4 mph 24.2 mph N/A   Overcast
7:53 AM 32.0 °F 22.1 °F 17.1 °F 54% 30.29 in 10.0 mi WNW 13.8 mph 21.9 mph N/A   Partly Cloudy
8:38 AM 30.9 °F 22.2 °F 24.1 °F 76% 30.30 in 1.8 mi NNW 10.4 mph - 0.00 in Snow Light Snow
8:53 AM 30.9 °F 22.2 °F 23.0 °F 72% 30.32 in 2.0 mi NNW 10.4 mph - 0.00 in Snow Light Snow
9:02 AM 32.0 °F 24.2 °F 23.0 °F 69% 30.30 in 9.0 mi NNW 9.2 mph - 0.00 in Snow Light Snow
9:53 AM 35.1 °F 26.9 °F 19.9 °F 54% 30.33 in 10.0 mi NNW 11.5 mph - 0.00 in   Mostly Cloudy
10:53 AM 36.0 °F 29.6 °F 18.0 °F 48% 30.32 in 10.0 mi WNW 8.1 mph - N/A   Overcast
11:53 AM 35.1 °F 27.9 °F 15.1 °F 44% 30.31 in 10.0 mi WNW 9.2 mph - N/A   Mostly Cloudy
12:53 PM 36.0 °F 27.5 °F 16.0 °F 44% 30.29 in 10.0 mi WNW 12.7 mph - N/A   Mostly Cloudy
1:53 PM 37.0 °F 29.8 °F 14.0 °F 39% 30.28 in 10.0 mi WNW 10.4 mph 21.9 mph N/A   Clear
2:53 PM 37.0 °F 30.4 °F 12.9 °F 37% 30.27 in 10.0 mi WNW 9.2 mph - N/A   Clear
3:53 PM 35.1 °F 26.9 °F 12.9 °F 40% 30.27 in 10.0 mi WNW 11.5 mph - N/A   Clear
4:53 PM 30.9 °F 25.2 °F 15.1 °F 52% 30.27 in 10.0 mi WSW 5.8 mph - N/A   Clear
5:53 PM 30.9 °F 25.2 °F 15.1 °F 52% 30.29 in 10.0 mi West 5.8 mph - N/A   Clear
6:53 PM 28.0 °F - 16.0 °F 61% 30.30 in 10.0 mi Calm Calm - N/A   Clear
7:53 PM 28.0 °F 24.2 °F 15.1 °F 58% 30.30 in 10.0 mi West 3.5 mph - N/A   Scattered Clouds
8:53 PM 26.1 °F - 16.0 °F 66% 30.28 in 10.0 mi Calm Calm - N/A   Clear
9:53 PM 25.0 °F 20.7 °F 17.1 °F 72% 30.29 in 10.0 mi SSW 3.5 mph - N/A   Mostly Cloudy
10:53 PM 28.0 °F - 18.0 °F 66% 30.29 in 10.0 mi Calm Calm - N/A   Overcast
11:53 PM 27.0 °F - 19.0 °F 72% 30.30 in 10.0 mi Calm Calm - N/A   Scattered Clouds